Location: Cargill Incorporated Elevator
(42.7294°N, 93.7333°W)
Time: 04:47:53
(UTC+00:00)

GEOS 3 Rocket - Pass Details

Date: 19 January 2026
Orbit: 768 x 845 km, 115.0° (Epoch: 14 February)

Event Time Altitude Azimuth Distance (km) Brightness Sun altitude
Rises 12:50:08 0° 149° (SSE) 3,292 7.7 -9.3°
Reaches altitude 10° 12:52:24 10° 151° (SSE) 2,377 6.8 -8.9°
Maximum altitude 12:57:33 70° 235° (SW) 868 3.7 -8.0°
Drops below altitude 10° 13:02:51 10° 319° (NW) 2,439 5.6 -7.1°
Enters shadow 13:04:14 - 321° (NW) 2,992 6.0 -6.9°
